SCP
0 0 0 0 0 0 0 0 0 0 0 0 0 0 0 1 2 2 3 4 4 4 5 5 4 4 4 5 5 6 7 7 7 7 7 7 7 7 7 7 6 5 4 4
0 0 0 0 0 0 0 0 0 0 0 0 0 0 1 1 2 3 4 4 4 4 5 5 4 4 4 4 5 6 7 8 8 8 8 7 7 7 6 6 6 5 4 4
0 0 0 0 0 0 0 0 0 0 0 0 0 0 1 1 2 3 4 4 5 5 5 5 5 5 5 4 5 6 7 8 9 9 9 8 7 6 6 6 6 4 3 3
0 0 0 0 0 0 0 0 0 0 0 0 0 0 0 1 2 3 4 5 5 5 5 5 6 6 6 6 6 7 8 9 10 10 9 8 7 7 7 7 5 3 2 2
0 0 0 0 0 0 0 0 0 0 0 0 0 0 0 1 2 3 4 5 5 5 4 5 6 7 7 7 7 8 8 9 10 10 8 8 7 7 6 5 3 2 1 1
0 0 0 0 0 0 0 0 0 0 0 0 0 0 1 2 2 3 4 5 4 4 3 4 5 7 7 8 9 10 9 9 9 8 7 7 7 7 5 3 2 1 1 0
0 0 0 0 0 0 0 0 0 0 0 0 0 0 1 2 2 2 3 3 3 3 3 3 4 5 6 7 9 10 10 9 7 6 6 6 7 7 4 2 1 1 1 0
0 0 0 0 0 0 0 0 0 0 0 0 0 1 2 2 2 2 2 3 3 3 3 3 3 3 4 6 7 8 9 9 8 8 7 6 7 7 4 1 1 1 0 0
0 0 0 0 0 0 0 0 0 0 0 0 0 1 2 2 2 2 2 2 2 2 2 2 2 2 3 3 5 6 7 8 9 9 7 6 7 6 4 1 1 0 0 0
0 0 0 0 0 0 0 0 0 0 0 0 0 1 1 2 2 2 2 2 2 1 1 1 1 1 1 1 2 3 4 5 5 5 4 4 4 3 2 1 0 0 0 0
0 0 0 0 0 0 0 0 0 0 0 0 0 1 1 2 2 2 2 2 1 1 1 0 0 0 0 0 0 1 1 1 1 1 1 1 1 1 1 0 0 0 0 0
0 0 0 0 0 0 0 0 0 0 0 0 0 1 2 2 3 2 2 2 1 1 1 0 0 0 0 0 0 0 0 0 0 0 0 0 0 0 0 0 0 0 0 0
0 0 0 0 0 0 0 0 0 0 0 0 0 1 2 3 3 2 2 2 1 1 1 0 0 0 0 0 0 0 0 0 0 0 0 0 0 0 0 0 0 0 0 0
0 0 0 0 0 0 0 0 0 0 0 0 1 1 2 3 2 2 2 2 1 1 0 0 0 0 0 0 0 0 0 0 0 0 0 0 0 0 0 0 0 0 0 0
0 0 0 0 0 0 0 1 1 1 1 1 1 1 2 3 3 2 2 2 1 1 0 0 0 0 0 0 0 0 0 0 0 0 0 0 0 0 0 0 0 0 0 0
0 0 0 0 0 0 0 1 1 1 1 1 1 2 2 3 3 3 3 2 1 1 0 0 0 0 0 0 0 0 0 0 0 0 0 0 0 0 0 0 0 0 0 0
0 0 0 0 0 0 1 1 1 1 1 1 2 2 2 2 2 2 2 2 1 0 0 0 0 0 0 0 0 0 0 0 0 0 0 0 0 0 0 0 0 0 0 0
0 1 0 0 0 0 1 1 1 1 1 1 2 2 2 2 2 1 1 1 1 0 0 0 0 0 0 0 0 0 0 0 0 0 0 0 0 0 0 0 0 0 0 0
0 0 0 0 0 0 1 1 1 1 1 1 1 2 1 1 1 0 0 0 0 0 0 0 0 0 0 0 0 0 0 0 0 0 0 0 0 0 0 0 0 0 0 0
0 0 0 0 0 0 1 1 1 1 1 1 1 1 1 1 0 0 0 0 0 0 0 0 0 0 0 0 0 0 0 0 0 0 0 0 0 0 0 0 0 0 0 0
0 0 0 0 0 0 1 0 0 0 1 0 0 0 0 0 0 0 0 0 0 0 0 0 0 0 0 0 0 0 0 0 0 0 0 0 0 0 0 0 0 0 0 0
0 0 0 0 0 0 0 0 0 0 0 0 0 0 0 0 0 0 0 0 0 0 0 0 0 0 0 0 0 0 0 0 0 0 0 0 0 0 0 0 0 0 0 0
0 0 0 0 0 0 0 0 0 0 0 0 0 0 0 0 0 0 0 0 0 0 0 0 0 0 0 0 0 0 0 0 0 0 0 0 0 0 0 0 0 0 0 0
0 0 0 0 0 0 0 0 0 0 0 0 0 0 0 0 0 0 0 0 0 0 0 0 0 0 0 0 0 0 0 0 0 0 0 0 0 0 0 0 0 0 0 0
0 0 0 0 0 0 0 0 0 0 0 0 0 0 0 0 0 0 0 0 0 0 0 0 0 0 0 0 0 0 0 0 0 0 0 0 0 0 0 0 0 0 0 0
0 0 0 0 0 0 0 0 0 0 0 0 0 0 0 0 0 0 0 0 0 0 0 0 0 0 0 0 0 0 0 0 0 0 0 0 0 0 0 0 0 0 0 0
Wind_Speed
12 12 13 13 14 10 6 8 9 7 3 8 11 12 10 8 7 7 6 6 6 7 6 6 9 12 13 14 15 15 15 15 12 10 9 8 6 5 4 3 3 3 2 2
12 16 13 9 10 12 11 11 11 9 6 8 10 12 11 9 7 5 6 6 6 7 5 4 6 10 13 14 15 15 16 15 14 10 8 7 7 5 4 4 4 4 3 3
17 6 10 11 12 14 15 14 12 10 7 10 11 14 13 9 5 2 3 5 6 6 6 5 3 5 8 11 14 13 14 15 14 13 9 8 6 5 4 4 3 3 3 3
14 8 9 13 14 14 14 12 12 11 11 10 9 11 10 8 6 2 3 6 8 8 7 6 4 1 2 5 8 11 12 12 13 14 12 13 9 7 5 5 5 5 5 4
10 11 12 14 13 14 11 8 10 11 11 12 10 11 8 7 7 3 6 9 10 10 9 8 7 6 5 3 5 8 10 11 12 12 12 10 8 6 6 6 8 7 6 5
9 8 11 11 11 12 9 7 8 9 11 14 13 12 9 4 2 4 7 9 9 10 10 10 11 10 9 8 7 8 10 9 9 9 8 8 9 9 9 8 7 6 5 5
11 11 10 10 11 12 12 11 9 11 11 11 8 10 2 8 6 6 7 9 9 10 11 11 12 13 12 12 11 11 11 10 9 9 7 7 8 9 9 8 8 7 6 6
9 10 11 11 13 11 15 16 11 8 10 8 9 9 8 8 8 9 9 10 11 11 12 13 13 13 13 14 13 13 13 12 11 11 10 9 9 7 7 8 8 8 7 7
5 5 7 10 12 13 14 15 15 12 10 9 7 6 9 8 9 10 10 11 12 12 12 13 14 14 14 14 14 14 14 13 13 12 12 11 10 10 11 10 9 8 8 7
6 6 5 6 9 12 13 11 9 12 12 13 11 12 9 13 11 10 11 11 11 11 12 13 13 13 13 13 13 14 14 14 13 13 11 10 12 11 11 10 10 10 9 8
7 8 5 7 9 10 11 12 11 12 12 12 12 4 7 10 10 11 12 11 11 11 11 11 12 12 12 13 13 14 14 14 13 13 13 13 12 12 11 11 10 9 9 8
3 6 7 6 3 5 10 12 12 12 12 12 12 3 7 8 10 13 13 12 12 12 11 11 12 12 13 13 13 13 13 13 13 13 13 13 12 12 12 11 10 9 9 8
4 5 7 8 8 7 7 7 9 10 10 11 13 4 9 9 11 12 14 13 12 12 11 11 11 11 12 12 12 12 12 12 12 12 12 12 12 12 11 11 10 9 9 8
6 5 7 7 2 3 5 5 6 9 10 10 9 6 11 10 11 12 13 13 12 11 11 11 11 11 11 11 11 11 11 11 11 11 12 12 11 11 10 10 9 8 8 7
6 4 2 3 2 2 3 3 4 6 7 8 3 5 10 11 11 12 12 12 12 12 11 11 11 10 10 10 10 10 10 10 10 11 11 11 10 9 9 9 8 7 7 7
5 4 4 4 3 3 3 3 3 3 4 4 1 2 8 10 10 11 11 11 12 11 11 11 11 10 10 9 9 9 10 9 9 10 10 9 9 8 8 8 7 7 6 5
5 5 6 6 4 7 7 3 4 3 4 4 4 3 10 11 10 9 10 11 11 11 11 11 10 9 9 9 9 9 9 9 9 9 9 8 8 7 7 6 6 5 4 4
6 6 5 6 5 9 4 6 5 3 4 6 4 7 10 12 12 11 9 11 11 11 11 10 9 9 9 9 9 9 9 9 9 8 7 7 7 7 6 6 5 4 3 3
3 5 5 5 7 5 5 4 5 4 3 7 7 11 13 14 13 10 10 10 11 11 10 9 9 9 9 9 9 9 9 8 8 8 7 6 6 6 5 5 5 4 3 3
2 5 6 6 7 3 6 7 6 5 2 6 6 9 10 7 4 5 8 10 11 10 9 9 9 9 9 8 8 9 8 8 7 7 6 6 6 5 5 5 4 4 3 3
3 4 5 6 5 3 8 9 6 3 4 4 5 6 6 4 8 11 11 11 11 11 10 10 9 9 8 7 7 8 8 7 7 6 6 6 5 5 4 4 3 3 3 3
5 4 3 4 3 3 10 7 6 6 4 4 6 8 11 13 14 13 12 11 11 11 10 9 9 9 8 7 7 7 8 7 6 5 5 5 4 3 3 2 2 3 3 3
3 5 4 4 3 4 5 5 4 3 3 4 7 10 13 14 13 13 12 11 11 11 10 9 9 9 7 6 6 7 6 5 4 4 4 4 3 3 3 3 3 2 3 3
0 2 4 1 2 2 3 4 5 5 5 5 7 11 13 14 14 13 12 11 10 10 9 8 9 8 8 7 6 6 5 3 3 3 3 2 2 2 2 3 4 4 5 5
4 3 4 3 1 2 3 4 5 6 6 8 9 11 13 15 14 13 12 11 9 9 8 7 7 8 8 7 6 5 4 3 3 2 1 1 2 3 2 3 5 6 7 7
2 4 5 3 4 2 5 5 5 6 8 9 11 12 12 13 14 13 11 10 10 9 8 7 7 7 7 6 5 5 4 3 2 1 1 2 2 2 3 2 3 5 4 3
Wind_Direction
190 210 214 212 220 247 251 239 225 224 233 259 248 251 254 259 264 266 268 270 265 261 257 238 218 209 201 197 194 191 190 183 179 175 172 167 164 154 142 140 149 169 190 203
194 223 226 225 221 232 233 237 238 236 229 262 263 261 256 255 254 275 297 302 299 296 292 268 231 209 204 200 198 193 191 183 181 173 166 163 151 148 156 157 158 158 184 185
217 218 210 211 210 219 228 237 244 252 248 241 258 252 236 222 224 251 319 331 329 325 322 316 271 226 210 204 200 196 190 182 175 159 151 143 138 144 157 157 142 128 135 130
230 212 195 208 214 217 229 228 245 251 254 242 225 257 212 204 191 148 17 8 3 360 359 1 9 20 203 199 193 188 180 172 162 159 161 163 165 167 161 146 126 111 102 107
216 211 208 217 219 218 238 230 234 244 249 260 230 248 228 188 200 103 43 26 19 18 23 27 33 49 62 89 137 150 150 149 154 160 162 164 155 143 133 128 123 119 110 107
231 205 219 225 221 218 227 224 229 241 243 241 235 238 229 148 96 61 51 38 32 34 42 47 51 58 64 74 94 115 122 126 136 139 144 148 142 137 133 131 130 121 109 103
215 209 212 225 217 204 213 220 219 215 217 232 205 225 168 90 78 72 67 56 46 49 52 53 53 55 57 62 71 84 93 95 100 105 104 112 120 123 125 127 125 120 112 105
216 211 200 210 223 209 211 224 237 241 230 214 182 220 112 101 100 93 84 75 64 58 56 54 53 54 55 58 64 72 77 79 81 84 85 87 94 102 105 107 112 111 109 107
235 222 190 211 222 228 214 224 243 261 266 259 207 142 126 132 122 108 96 84 73 65 59 57 55 55 56 58 61 69 76 77 79 83 86 87 90 93 99 103 105 105 107 109
274 262 229 211 219 223 241 231 229 240 245 244 230 211 179 160 141 122 105 93 83 73 66 60 57 58 59 63 66 68 72 75 76 78 80 84 87 91 97 99 98 99 98 101
265 258 227 202 217 212 211 222 230 240 250 253 245 205 89 141 138 126 109 99 90 81 72 67 64 63 65 67 69 71 72 73 74 76 79 81 83 86 90 91 93 95 97 99
295 268 254 233 231 256 227 229 227 238 238 247 266 114 100 125 128 122 114 105 96 89 83 78 73 70 67 67 67 69 70 73 76 79 81 83 84 85 86 88 89 92 92 93
322 261 245 213 194 201 223 230 240 246 257 250 253 155 120 123 121 119 118 114 108 102 95 88 80 73 70 70 70 70 71 74 77 82 84 83 83 83 84 85 85 86 87 87
287 275 282 286 300 192 212 219 234 244 249 249 252 149 150 146 136 129 124 119 114 108 102 95 89 83 79 76 75 75 74 77 79 81 81 80 78 80 82 82 81 80 82 83
320 270 279 316 328 261 234 244 245 257 283 283 269 157 158 154 142 132 125 120 112 106 101 97 95 92 87 83 80 80 78 78 83 85 83 81 81 82 81 79 78 77 75 77
338 294 269 250 244 258 254 265 270 287 299 295 240 108 108 121 121 119 118 115 109 105 102 99 97 94 91 89 89 88 86 85 88 88 87 85 83 83 83 83 81 79 76 76
309 295 273 254 248 258 243 334 324 311 338 310 290 108 127 121 109 108 110 109 106 105 102 98 94 92 93 93 95 94 94 93 91 89 88 89 90 88 87 86 84 81 78 71
293 291 272 270 259 249 67 49 14 356 14 4 43 105 114 103 89 76 87 103 104 104 103 103 103 99 97 98 97 98 97 95 93 94 95 94 94 91 85 81 76 69 59 47
271 282 276 270 255 240 118 50 357 330 34 38 87 105 109 115 99 71 69 87 97 100 102 103 104 105 106 106 107 106 102 102 103 101 98 95 92 89 85 78 70 55 39 30
209 251 262 260 269 275 62 18 339 287 115 65 100 124 138 155 135 105 99 100 101 103 104 106 108 108 107 111 116 112 111 109 103 98 93 87 82 77 72 67 55 49 28 17
286 267 266 269 263 62 26 336 306 294 56 60 102 119 121 69 84 114 114 108 108 108 110 112 113 109 110 114 112 107 103 98 97 97 90 81 77 75 66 59 45 27 13 13
325 319 321 309 284 54 11 2 25 28 28 76 102 106 103 104 109 115 116 115 116 116 117 118 113 108 109 112 111 105 98 99 103 99 91 81 65 51 61 46 24 2 347 349
337 355 347 3 26 52 38 44 42 26 50 76 103 115 121 122 123 121 120 119 121 120 118 118 115 112 111 109 101 96 96 98 100 99 87 74 62 50 26 2 0 348 346 354
53 334 305 317 100 81 61 64 57 51 64 84 112 126 129 127 128 126 124 123 122 120 119 119 116 112 107 101 93 87 84 79 86 86 77 62 39 40 41 356 3 4 5 2
316 300 292 295 76 116 96 62 66 79 91 104 114 122 129 130 129 127 126 126 125 121 117 115 108 105 104 100 91 82 74 63 64 69 52 25 37 35 20 35 34 11 38 23
281 295 305 358 39 7 78 88 95 103 105 112 118 118 122 126 126 128 128 127 123 120 118 112 108 107 104 100 90 76 60 43 20 8 5 5 20 20 5 30 105 93 53 108